Hourly Weather Barroso

Today, 18 April, Sunday

Time Temperature Precipitation Wind Pressure Humidity
00:00 +16°C° 0 mm 1 mps 679 mmHg 90%
01:00 +15°C° 0 mm 1 mps 679 mmHg 91%
02:00 +15°C° 0 mm 1 mps 679 mmHg 91%
03:00 +15°C° 0 mm 1 mps 678 mmHg 92%
04:00 +15°C° 0 mm 1 mps 678 mmHg 92%
05:00 +14°C° 0 mm 0 mps 679 mmHg 92%
06:00 +14°C° 0 mm 0 mps 679 mmHg 91%
07:00 +18°C° 0 mm 1 mps 679 mmHg 83%
08:00 +20°C° 0 mm 1 mps 680 mmHg 75%
09:00 +23°C° 0 mm 1 mps 681 mmHg 66%
10:00 +24°C° 0 mm 2 mps 681 mmHg 61%
11:00 +25°C° 0 mm 2 mps 680 mmHg 56%
12:00 +27°C° 0 mm 3 mps 680 mmHg 50%
13:00 +26°C° 0.1 mm 2 mps 680 mmHg 56%
14:00 +25°C° 0.1 mm 2 mps 679 mmHg 61%
15:00 +24°C° 0.1 mm 2 mps 678 mmHg 66%
16:00 +23°C° 0 mm 1 mps 678 mmHg 70%
17:00 +21°C° 0 mm 1 mps 678 mmHg 73%
18:00 +18°C° 0 mm 0 mps 678 mmHg 77%
19:00 +17°C° 0.6 mm 0 mps 678 mmHg 82%
20:00 +16°C° 0.6 mm 0 mps 678 mmHg 86%
21:00 +18°C° 0.6 mm 1 mps 679 mmHg 91%
22:00 +16°C° 0.4 mm 0 mps 679 mmHg 91%
23:00 +15°C° 0.4 mm 0 mps 679 mmHg 91%

Tomorrow, 19 April, Monday

Time Temperature Precipitation Wind Pressure Humidity
00:00 +15°C° 0.4 mm 0 mps 678 mmHg 91%
01:00 +15°C° 0.3 mm 0 mps 678 mmHg 92%
02:00 +15°C° 0.3 mm 0 mps 678 mmHg 92%
03:00 +15°C° 0.3 mm 0 mps 678 mmHg 93%
04:00 +15°C° 0.2 mm 0 mps 678 mmHg 93%
05:00 +15°C° 0.2 mm 0 mps 678 mmHg 93%
06:00 +14°C° 0.2 mm 0 mps 678 mmHg 93%
07:00 +16°C° 0.1 mm 0 mps 679 mmHg 88%
08:00 +18°C° 0.1 mm 0 mps 679 mmHg 84%
09:00 +20°C° 0.1 mm 0 mps 680 mmHg 79%
10:00 +23°C° 0.5 mm 1 mps 680 mmHg 74%
11:00 +24°C° 0.5 mm 1 mps 680 mmHg 69%
12:00 +25°C° 0.5 mm 2 mps 680 mmHg 64%
13:00 +26°C° 0.3 mm 2 mps 679 mmHg 63%
14:00 +26°C° 0.3 mm 2 mps 679 mmHg 61%
15:00 +26°C° 0.3 mm 3 mps 678 mmHg 59%
16:00 +24°C° 0.5 mm 2 mps 678 mmHg 68%
17:00 +21°C° 0.5 mm 2 mps 678 mmHg 77%
18:00 +18°C° 0.5 mm 2 mps 678 mmHg 87%
19:00 +18°C° 0.1 mm 2 mps 678 mmHg 89%
20:00 +17°C° 0.1 mm 2 mps 679 mmHg 91%
21:00 +16°C° 0.1 mm 2 mps 679 mmHg 94%
22:00 +16°C° 0 mm 1 mps 679 mmHg 95%
23:00 +15°C° 0 mm 1 mps 679 mmHg 96%

Day after tomorrow, 20 April, Tuesday

Time Temperature Precipitation Wind Pressure Humidity
00:00 +15°C° 0 mm 1 mps 679 mmHg 97%
01:00 +15°C° 0 mm 1 mps 679 mmHg 97%
02:00 +15°C° 0 mm 1 mps 678 mmHg 97%
03:00 +14°C° 0 mm 1 mps 678 mmHg 97%
04:00 +14°C° 0 mm 1 mps 678 mmHg 97%
05:00 +14°C° 0 mm 1 mps 678 mmHg 97%
06:00 +13°C° 0 mm 1 mps 678 mmHg 97%
07:00 +15°C° 0 mm 1 mps 679 mmHg 89%
08:00 +18°C° 0 mm 1 mps 680 mmHg 82%
09:00 +20°C° 0 mm 1 mps 680 mmHg 75%
10:00 +22°C° 0 mm 1 mps 680 mmHg 68%
11:00 +24°C° 0 mm 1 mps 680 mmHg 61%
12:00 +25°C° 0 mm 1 mps 680 mmHg 54%
13:00 +25°C° 0 mm 1 mps 680 mmHg 54%
14:00 +25°C° 0 mm 1 mps 679 mmHg 53%
15:00 +25°C° 0 mm 2 mps 679 mmHg 52%
16:00 +24°C° 0 mm 2 mps 679 mmHg 60%
17:00 +21°C° 0 mm 3 mps 679 mmHg 67%
18:00 +19°C° 0 mm 3 mps 679 mmHg 75%
19:00 +18°C° 0 mm 3 mps 679 mmHg 81%
20:00 +17°C° 0 mm 2 mps 679 mmHg 87%
21:00 +15°C° 0 mm 2 mps 680 mmHg 94%
22:00 +15°C° 0 mm 1 mps 679 mmHg 94%
23:00 +15°C° 0 mm 1 mps 679 mmHg 94%

21 April, Wednesday

Time Temperature Precipitation Wind Pressure Humidity
00:00 +14°C° 0 mm 1 mps 679 mmHg 95%
01:00 +14°C° 0 mm 1 mps 679 mmHg 95%
02:00 +13°C° 0 mm 1 mps 679 mmHg 94%
03:00 +13°C° 0 mm 1 mps 678 mmHg 94%
04:00 +12°C° 0 mm 1 mps 678 mmHg 93%
05:00 +11°C° 0 mm 0 mps 678 mmHg 92%
06:00 +11°C° 0 mm 0 mps 678 mmHg 91%
07:00 +13°C° 0 mm 0 mps 679 mmHg 82%
08:00 +16°C° 0 mm 0 mps 680 mmHg 73%
09:00 +19°C° 0 mm 0 mps 681 mmHg 64%
10:00 +20°C° 0 mm 0 mps 681 mmHg 59%
11:00 +22°C° 0 mm 0 mps 681 mmHg 54%
12:00 +23°C° 0 mm 0 mps 681 mmHg 49%
13:00 +25°C° 0 mm 1 mps 680 mmHg 48%
14:00 +25°C° 0 mm 1 mps 680 mmHg 47%
15:00 +25°C° 0 mm 1 mps 679 mmHg 46%
16:00 +23°C° 0 mm 1 mps 679 mmHg 55%
17:00 +21°C° 0 mm 1 mps 679 mmHg 64%
18:00 +19°C° 0 mm 1 mps 679 mmHg 73%
19:00 +18°C° 0 mm 1 mps 679 mmHg 79%
20:00 +16°C° 0 mm 1 mps 680 mmHg 86%
21:00 +15°C° 0 mm 1 mps 680 mmHg 93%
22:00 +14°C° 0 mm 1 mps 680 mmHg 93%
23:00 +14°C° 0 mm 1 mps 680 mmHg 94%

22 April, Thursday

Time Temperature Precipitation Wind Pressure Humidity
00:00 +14°C° 0 mm 1 mps 680 mmHg 94%
01:00 +14°C° 0 mm 1 mps 679 mmHg 94%
02:00 +13°C° 0 mm 1 mps 679 mmHg 94%
03:00 +12°C° 0 mm 0 mps 679 mmHg 94%
04:00 +12°C° 0 mm 0 mps 679 mmHg 93%
05:00 +12°C° 0 mm 0 mps 679 mmHg 93%
06:00 +12°C° 0 mm 0 mps 679 mmHg 93%
07:00 +14°C° 0 mm 0 mps 680 mmHg 86%
08:00 +17°C° 0 mm 0 mps 681 mmHg 78%
09:00 +19°C° 0 mm 0 mps 681 mmHg 71%
10:00 +23°C° 0 mm 1 mps 681 mmHg 64%
11:00 +24°C° 0 mm 1 mps 681 mmHg 58%
12:00 +26°C° 0 mm 1 mps 681 mmHg 51%
13:00 +26°C° 0 mm 2 mps 681 mmHg 49%
14:00 +26°C° 0 mm 2 mps 680 mmHg 47%
15:00 +26°C° 0 mm 2 mps 680 mmHg 45%
16:00 +24°C° 0 mm 2 mps 680 mmHg 52%
17:00 +21°C° 0 mm 2 mps 679 mmHg 60%
18:00 +20°C° 0 mm 1 mps 679 mmHg 67%
19:00 +20°C° 0 mm 1 mps 680 mmHg 73%
20:00 +18°C° 0 mm 2 mps 680 mmHg 79%
21:00 +17°C° 0 mm 2 mps 680 mmHg 85%
22:00 +16°C° 0 mm 2 mps 680 mmHg 88%
23:00 +15°C° 0 mm 2 mps 680 mmHg 91%

23 April, Friday

Time Temperature Precipitation Wind Pressure Humidity
00:00 +15°C° 0 mm 2 mps 680 mmHg 94%
01:00 +15°C° 0 mm 2 mps 680 mmHg 95%
02:00 +14°C° 0 mm 2 mps 679 mmHg 95%
03:00 +14°C° 0 mm 1 mps 679 mmHg 95%
04:00 +14°C° 0 mm 1 mps 679 mmHg 95%
05:00 +14°C° 0 mm 1 mps 680 mmHg 95%
06:00 +14°C° 0 mm 1 mps 680 mmHg 95%
07:00 +16°C° 0 mm 1 mps 681 mmHg 88%
08:00 +19°C° 0 mm 1 mps 682 mmHg 82%
09:00 +21°C° 0 mm 1 mps 682 mmHg 75%
10:00 +23°C° 0 mm 1 mps 682 mmHg 68%
11:00 +25°C° 0 mm 2 mps 682 mmHg 61%
12:00 +26°C° 0 mm 2 mps 681 mmHg 54%
13:00 +27°C° 0 mm 3 mps 681 mmHg 51%
14:00 +27°C° 0 mm 3 mps 680 mmHg 48%
15:00 +27°C° 0 mm 4 mps 680 mmHg 46%
16:00 +25°C° 0 mm 3 mps 680 mmHg 53%
17:00 +23°C° 0 mm 2 mps 679 mmHg 61%
18:00 +20°C° 0 mm 1 mps 679 mmHg 68%
19:00 +19°C° 0 mm 1 mps 679 mmHg 71%
20:00 +19°C° 0 mm 1 mps 680 mmHg 75%
21:00 +18°C° 0 mm 1 mps 680 mmHg 78%
22:00 +16°C° 0 mm 1 mps 680 mmHg 84%
23:00 +16°C° 0 mm 2 mps 680 mmHg 90%
Show more